Location: Bottom School (historical)
(37.9078°N, 89.3593°W)
Time: 19:54:14
(UTC+00:00)

SL-4 R/B - Pass Details

Date: 04 July 2022
Orbit: 425 x 653 km, 51.6° (Epoch: 16 August)

Event Time Altitude Azimuth Distance (km) Brightness Sun altitude
Exits shadow 08:13:10 - 301° (WNW) 2,334 5.2 -21.9°
Reaches altitude 10° 08:16:15 10° 335° (NNW) 1,662 4.9 -21.5°
Maximum altitude 08:17:25 11° 354° (N) 1,610 5.1 -21.4°
Drops below altitude 10° 08:18:36 10° 12° (NNE) 1,702 5.5 -21.3°
Sets 08:22:25 0° 48° (NE) 2,660 6.9 -20.8°
